User: anonymous   Login
Location: *
(45.9500°N, 9.0833°E)
Time: 19:05:56
(UTC+00:00)
Language:

SME Rocket - Orbit

View from above orbital plane
View from above orbital plane
View from above satellite
View from above satellite

Ground track
Ground track

The orbit data is extracted from the following two-line orbital elements,

1 12889U 81100C   21136.62115523 -.00000024  00000-0  39848-5 0  9990
2 12889  99.8642 332.4848 1316767  51.2773 354.4851 12.18065673755024
Epoch (UTC): 16 May 2021 14:54:27
Eccentricity: 0.1316767
inclination: 99.8642°
perigee height: 550 km
apogee height: 2651 km
right ascension of ascending node: 332.4848°
argument of perigee: 51.2773°
revolutions per day: 12.18065673
mean anomaly at epoch: 354.4851°
orbit number at epoch: 75502

The dashed part of the orbit path shows where the satellite is in the earth's shadow,  

DLR